Weather History for Branson, MO

Change the Weather History Date:

Wednesday, June 26, 2013

  Actual Average (KHRO) Record (KHRO)
Temperature  
Mean Temperature 85 °F 76 °F  
Max Temperature 95 °F 87 °F 102 °F (1954)
Min Temperature 75 °F 65 °F 46 °F (1974)
Degree Days  
Heating Degree Days 0 0  
Month to date heating degree days 3  
Since 1 June heating degree days 3  
Since 1 July heating degree days 4001  
Cooling Degree Days 20 11  
Month to date cooling degree days 220  
Year to date cooling degree days 359  
Since 1 June cooling degree days 220  
Growing Degree Days 35 (Base 50)    
Moisture  
Dew Point 69 °F    
Average Humidity 67    
Maximum Humidity 78    
Minimum Humidity 44    
Precipitation  
Precipitation 0.00 in 0.12 in 1.82 in (1946)
Month to date precipitation 3.74  
Year to date precipitation 21.74  
Snow  
Snow 0.00 in 0.00 in - ()
Month to date snowfall 0.0  
Since 1 June snowfall 0.0  
Since 1 July snowfall 11.5  
Snow Depth -    
Sea Level Pressure  
Sea Level Pressure 29.91 in    
Wind  
Wind Speed 6 mph (SW)    
Max Wind Speed 15 mph    
Max Gust Speed 23 mph    
Visibility 10 miles    
Events      
T = Trace of Precipitation, MM = Missing Value Source: NWS Daily Summary

Daily Weather History Graph

Daily Weather History Graph

Search for Another Location

Airport:

Trip Planner

Search our weather history database for the weather conditions in past years. The results will help you decide how hot, cold, wet, or windy it might be!

Date:

Astronomy

Jun. 26, 2013 Rise Set
Actual Time 5:56 AM CDT 8:35 PM CDT
Civil Twilight 5:25 AM CDT 9:05 PM CDT
Nautical Twilight 4:47 AM CDT 9:43 PM CDT
Astronomical Twilight 4:05 AM CDT 10:26 PM CDT
Moon 11:06 PM CDT (6/26) 9:42 AM CDT (6/26)
Length of Visible Light 15h 39m
Length of Day
14h 38m
Waning Gibbous, 85% of the Moon is Illuminated
Jun 26
Waning Gibbous
Jun 29
Last Quarter
Jul 8
New
Jul 15
First Quarter
Jul 22
Full

Hourly Weather History & Observations

Time (CDT) Temp. Heat Index Dew Point Humidity Pressure Visibility Wind Dir Wind Speed Gust Speed Precip Events Conditions
12:15 AM 77.0 °F - 66.2 °F 69% 29.93 in 10.0 mi South 5.8 mph - N/A   Clear
12:35 AM 77.0 °F - 66.2 °F 69% 29.92 in 10.0 mi SSE 6.9 mph - N/A   Partly Cloudy
12:55 AM 77.0 °F - 68.0 °F 74% 29.92 in 10.0 mi SSE 6.9 mph - N/A   Partly Cloudy
1:15 AM 75.2 °F - 68.0 °F 78% 29.91 in 10.0 mi SSE 5.8 mph - N/A   Partly Cloudy
1:35 AM 75.2 °F - 68.0 °F 78% 29.91 in 10.0 mi SSE 4.6 mph - N/A   Clear
1:55 AM 75.2 °F - 68.0 °F 78% 29.90 in 10.0 mi SSE 6.9 mph - N/A   Partly Cloudy
2:15 AM 75.2 °F - 68.0 °F 78% 29.89 in 10.0 mi SSE 6.9 mph - N/A   Partly Cloudy
2:35 AM 75.2 °F - 68.0 °F 78% 29.89 in 10.0 mi South 5.8 mph - N/A   Partly Cloudy
2:55 AM 75.2 °F - 68.0 °F 78% 29.88 in 10.0 mi South 5.8 mph - N/A   Partly Cloudy
3:15 AM 75.2 °F - 68.0 °F 78% 29.88 in 10.0 mi South 4.6 mph - N/A   Partly Cloudy
3:35 AM 75.2 °F - 68.0 °F 78% 29.88 in 10.0 mi South 4.6 mph - N/A   Partly Cloudy
3:55 AM 75.2 °F - 68.0 °F 78% 29.88 in 10.0 mi South 3.5 mph - N/A   Partly Cloudy
4:15 AM 75.2 °F - 68.0 °F 78% 29.88 in 10.0 mi South 4.6 mph - N/A   Partly Cloudy
4:35 AM 75.2 °F - 68.0 °F 78% 29.88 in 10.0 mi South 4.6 mph - N/A   Clear
4:55 AM 75.2 °F - 68.0 °F 78% 29.88 in 10.0 mi South 4.6 mph - N/A   Clear
5:15 AM 75.2 °F - 68.0 °F 78% 29.88 in 10.0 mi South 4.6 mph - N/A   Clear
5:35 AM 75.2 °F - 68.0 °F 78% 29.89 in 10.0 mi South 4.6 mph - N/A   Clear
5:55 AM 75.2 °F - 68.0 °F 78% 29.89 in 10.0 mi SSW 4.6 mph - N/A   Clear
6:15 AM 77.0 °F - 68.0 °F 74% 29.89 in 10.0 mi SSW 8.1 mph - N/A   Clear
6:35 AM 77.0 °F - 68.0 °F 74% 29.89 in 10.0 mi SSW 6.9 mph - N/A   Clear
7:55 AM 80.6 °F 83.2 °F 68.0 °F 65% 29.91 in 10.0 mi SSW 10.4 mph - N/A   Mostly Cloudy
8:55 AM 84.2 °F 87.3 °F 68.0 °F 58% 29.92 in 10.0 mi SW 11.5 mph 18.4 mph N/A   Partly Cloudy
9:50 AM 84.2 °F 87.3 °F 68.0 °F 58% 29.91 in 10.0 mi WSW 11.5 mph 18.4 mph N/A   Partly Cloudy
10:45 AM 87.8 °F 91.4 °F 68.0 °F 52% 29.92 in 10.0 mi SW 9.2 mph - N/A   Clear
11:45 AM 89.6 °F 93.4 °F 68.0 °F 49% 29.93 in 10.0 mi West 11.5 mph 18.4 mph N/A   Clear
12:45 PM 91.4 °F 95.4 °F 68.0 °F 46% 29.93 in 10.0 mi WSW 11.5 mph - N/A   Clear
1:45 PM 93.2 °F 98.8 °F 69.8 °F 46% 29.92 in 10.0 mi West 15.0 mph 23.0 mph N/A   Partly Cloudy
2:47 PM 95.0 °F 101.3 °F 69.8 °F 44% 29.91 in 10.0 mi SW 8.1 mph - N/A   Partly Cloudy
3:50 PM 93.2 °F 98.8 °F 69.8 °F 46% 29.90 in 10.0 mi SW 4.6 mph - N/A   Partly Cloudy
4:45 PM 95.0 °F 101.3 °F 69.8 °F 44% 29.90 in 10.0 mi WSW 12.7 mph - N/A   Clear
5:45 PM 93.2 °F 98.8 °F 69.8 °F 46% 29.89 in 10.0 mi SW 9.2 mph - N/A   Scattered Clouds
6:45 PM 91.4 °F 98.4 °F 71.6 °F 52% 29.90 in 10.0 mi West 5.8 mph - N/A   Scattered Clouds
7:45 PM 89.6 °F 96.2 °F 71.6 °F 55% 29.91 in 10.0 mi WSW 4.6 mph - N/A   Partly Cloudy
8:45 PM 86.0 °F 91.8 °F 71.6 °F 62% 29.92 in 10.0 mi West 4.6 mph - N/A   Partly Cloudy
9:15 PM 84.2 °F 89.6 °F 71.6 °F 66% 29.92 in 10.0 mi West 3.5 mph - N/A   Clear
9:35 PM 84.2 °F 89.6 °F 71.6 °F 66% 29.93 in 10.0 mi West 3.5 mph - N/A   Clear
9:55 PM 84.2 °F 89.6 °F 71.6 °F 66% 29.94 in 10.0 mi WSW 3.5 mph - N/A   Clear
10:15 PM 82.4 °F 88.2 °F 73.4 °F 74% 29.94 in 10.0 mi West 5.8 mph - N/A   Clear
10:35 PM 82.4 °F 87.2 °F 71.6 °F 70% 29.95 in 10.0 mi Calm Calm - N/A   Clear
10:55 PM 82.4 °F 87.2 °F 71.6 °F 70% 29.95 in 10.0 mi WSW 3.5 mph - N/A   Clear
11:15 PM 80.6 °F 84.6 °F 71.6 °F 74% 29.96 in 10.0 mi West 5.8 mph - N/A   Clear
11:35 PM 80.6 °F 84.6 °F 71.6 °F 74% 29.96 in 10.0 mi WSW 4.6 mph - N/A   Clear
11:55 PM 80.6 °F 84.6 °F 71.6 °F 74% 29.96 in 10.0 mi WSW 5.8 mph - N/A   Clear